This is the latest recevied weather packets stored in our database for station/object IW7DVM-13. If no packets are shown the sender has not sent any weather packets the latest 1 day(s).
| Time | Temp. | Humidity | Pressure | Rain* | Wind** | Luminosity | Snow |
|---|---|---|---|---|---|---|---|
| 1778037603 | 16.67° C | 74% | 1009.3 hPa | 0 mm | 0 m/s | - | - |
| 1778037303 | 16.67° C | 74% | 1009.2 hPa | 0 mm | 0.45 m/s, 103° | - | - |
| 1778037003 | 16.67° C | 74% | 1009.3 hPa | 0 mm | 0.45 m/s, 109° | - | - |
| 1778036703 | 16.67° C | 74% | 1009.3 hPa | 0 mm | 0.45 m/s, 103° | - | - |
| 1778036403 | 16.67° C | 74% | 1009.2 hPa | 0 mm | 0 m/s | - | - |
| 1778036103 | 16.67° C | 73% | 1009.3 hPa | 0 mm | 0 m/s | - | - |
| 1778035803 | 16.67° C | 73% | 1009.4 hPa | 0 mm | 0.45 m/s, 130° | - | - |
| 1778035503 | 16.67° C | 73% | 1009.4 hPa | 0 mm | 0.45 m/s, 131° | - | - |
| 1778035203 | 16.67° C | 73% | 1009.3 hPa | 0 mm | 0.89 m/s, 137° | - | - |
| 1778034903 | 16.67° C | 73% | 1009.3 hPa | 0 mm | 0.89 m/s, 135° | - | - |
| 1778034603 | 16.67° C | 73% | 1009.3 hPa | 0 mm | 0.89 m/s, 139° | - | - |
| 1778034303 | 16.67° C | 73% | 1009.2 hPa | 0 mm | 0.89 m/s, 131° | - | - |
| 1778034003 | 16.67° C | 73% | 1009.3 hPa | 0 mm | 0.45 m/s, 130° | - | - |
| 1778033703 | 16.67° C | 73% | 1009.2 hPa | 0 mm | 1.34 m/s, 138° | - | - |
| 1778033403 | 16.67° C | 73% | 1009.3 hPa | 0 mm | 0.89 m/s, 130° | - | - |
| 1778033103 | 16.67° C | 73% | 1009.3 hPa | 0 mm | 0.45 m/s, 113° | - | - |
| 1778032803 | 16.67° C | 73% | 1009.4 hPa | 0 mm | 0.45 m/s, 116° | - | - |
| 1778032503 | 16.67° C | 73% | 1009.4 hPa | 0 mm | 0 m/s | - | - |
| 1778032203 | 16.67° C | 73% | 1009.2 hPa | 0 mm | 0.45 m/s, 58° | - | - |
| 1778031903 | 16.11° C | 73% | 1009.4 hPa | 0 mm | 0.89 m/s, 48° | - | - |
| 1778031603 | 16.11° C | 73% | 1009.3 hPa | 0 mm | 0.89 m/s, 46° | - | - |
| 1778031303 | 16.11° C | 73% | 1009.2 hPa | 0 mm | 0.89 m/s, 45° | - | - |
| 1778031003 | 16.11° C | 73% | 1009.2 hPa | 0 mm | 1.34 m/s, 36° | - | - |
| 1778030703 | 16.11° C | 73% | 1009.2 hPa | 0 mm | 1.34 m/s, 41° | - | - |
| 1778030403 | 16.11° C | 73% | 1009.3 hPa | 0 mm | 1.34 m/s, 24° | - | - |
* Rain latest hour (hover to see other rain measurements)
** Current wind speed in m/s (hover to see current wind gust speed)